Location: Castro Valley
(37.6940°N, 122.0850°W)
Time: 20:30:26
(UTC-08:00)

Amateur Radio Satellites - All Passes

Search period start: 21 February 2017 20:00
Search period end: 22 February 2017 20:00
Location: Castro Valley, 37.6940°N, 122.0850°W

Satellite Date Start Highest point End Downlink Frequencies (MHz)
Time Altitude Azimuth
CUTE 1.7 + AOD 2 21 Feb 20:17:11 20:19:09 13° 268° (W) 20:21:08 437.475
DELFI C3 21 Feb 20:20:52 20:24:03 23° 70° (ENE) 20:27:14 145.870
AO-73 21 Feb 20:21:05 20:25:27 84° 254° (WSW) 20:30:00 145.935
Oscar 11 21 Feb 20:33:11 20:37:31 69° 258° (WSW) 20:41:53 .
UWE-3 21 Feb 20:36:40 20:40:29 29° 264° (W) 20:44:27 435.000/436.395/437.385
HO-68 21 Feb 20:43:10 20:47:20 16° 269° (W) 20:51:31 435.675
STRAND 1 21 Feb 20:53:05 20:56:37 19° 295° (WNW) 21:00:08 437.568
ZACube-1 21 Feb 21:07:22 21:10:54 23° 266° (W) 21:14:30 437.345
YUBILEINY 21 Feb 21:10:29 21:18:32 39° 74° (ENE) 21:26:29 435.215
RS-15 21 Feb 21:51:26 21:59:42 20° 344° (NNW) 22:08:03 29.354- 29.394
PRISM 21 Feb 21:52:00 21:56:04 70° 284° (WNW) 22:00:06 437.425
SO-50 21 Feb 21:54:41 21:57:38 17° 109° (ESE) 22:00:34 436.795
ESTCUBE 1 21 Feb 21:55:35 21:58:59 21° 68° (ENE) 22:02:23 437.505/2401.250
DELFI C3 21 Feb 21:55:36 21:58:45 22° 264° (W) 22:01:54 145.870
UNISAT 6 21 Feb 22:24:11 22:28:55 83° 284° (WNW) 22:33:35 437.425
TIGRISAT 21 Feb 22:25:44 22:30:28 86° 287° (WNW) 22:35:09 435.000
VELOX 1 21 Feb 22:38:31 22:41:42 20° 67° (ENE) 22:44:54 145.980
EO-79 21 Feb 22:40:07 22:40:42 10° 91° (E) 22:41:18 145.935-145.965
FO-29 21 Feb 22:40:33 22:48:13 63° 100° (E) 22:55:09 435.910
DX 1 21 Feb 22:46:17 22:46:42 10° 63° (ENE) 22:47:07 434.975-435.025
O/OREOS (USA 219) 21 Feb 22:48:25 22:52:27 34° 104° (ESE) 22:56:30 437.305
JUGNU 21 Feb 22:49:58 22:51:24 11° 171° (S) 22:52:49 437.505
POLYITAN 1 21 Feb 22:54:24 22:57:08 16° 93° (E) 22:59:50 437.675
QB50P2 21 Feb 22:56:55 22:59:58 19° 94° (E) 23:03:00 145.880/145.840
NANOSAT C BR1 21 Feb 22:57:44 23:00:25 16° 93° (E) 23:03:05 145.865
50 SAT 21 Feb 23:02:34 23:05:13 20° 70° (ENE) 23:07:52 437.505
UKube-1 21 Feb 23:05:04 23:06:44 12° 64° (ENE) 23:08:24 .
YUBILEINY 21 Feb 23:07:18 23:15:17 42° 273° (W) 23:23:14 435.215
SPROUT 21 Feb 23:15:24 23:19:20 39° 72° (ENE) 23:23:19 437.525
ESTCUBE 1 21 Feb 23:31:29 23:35:33 33° 263° (W) 23:39:39 437.505/2401.250
AIST 2D 21 Feb 23:32:24 23:36:00 89° 107° (ESE) 23:39:32 435.315
SO-50 21 Feb 23:33:08 23:37:42 50° 304° (NW) 23:42:13 436.795
BUGSAT 1 21 Feb 23:45:12 23:48:01 17° 94° (E) 23:50:49 437.445
DUCHIFAT 1 22 Feb 00:06:21 00:10:38 85° 284° (WNW) 00:14:53 145.980
RS-15 22 Feb 00:10:05 00:18:57 22° 21° (NNE) 00:27:40 29.354- 29.394
EO-79 22 Feb 00:12:35 00:16:48 59° 286° (WNW) 00:21:00 145.935-145.965
VELOX 1 22 Feb 00:13:57 00:17:54 33° 262° (W) 00:21:54 145.980
DX 1 22 Feb 00:17:58 00:22:16 69° 258° (WSW) 00:26:36 434.975-435.025
FO-29 22 Feb 00:26:26 00:32:31 26° 299° (WNW) 00:38:16 435.910
O/OREOS (USA 219) 22 Feb 00:28:33 00:31:55 21° 301° (WNW) 00:35:18 437.305
POLYITAN 1 22 Feb 00:29:03 00:33:02 38° 288° (WNW) 00:37:00 437.675
QB50P2 22 Feb 00:31:57 00:35:48 33° 289° (WNW) 00:39:38 145.880/145.840
NANOSAT C BR1 22 Feb 00:32:18 00:36:15 38° 288° (WNW) 00:40:12 145.865
50 SAT 22 Feb 00:35:37 00:38:15 20° 264° (W) 00:40:52 437.505
JUGNU 22 Feb 00:36:52 00:39:31 13° 181° (S) 00:42:11 437.505
UKube-1 22 Feb 00:38:01 00:42:15 57° 259° (W) 00:46:29 .
ITUPSAT 1 22 Feb 00:48:08 00:49:51 12° 62° (ENE) 00:51:35 437.325
Oscar 19 22 Feb 00:49:03 00:53:16 25° 95° (E) 00:57:26 437.125/150
SPROUT 22 Feb 00:52:50 00:55:23 15° 267° (W) 00:57:57 437.525
BEESAT 22 Feb 00:56:20 00:58:59 15° 64° (ENE) 01:01:38 436.000
Gurwin Techsat 1B 22 Feb 01:03:26 01:07:11 19° 93° (E) 01:10:55 435.225
BUGSAT 1 22 Feb 01:19:34 01:23:26 35° 288° (WNW) 01:27:18 437.445
PCSat 22 Feb 01:26:49 01:31:32 29° 53° (NE) 01:36:15 145.827
SRMSAT 22 Feb 01:29:41 01:31:36 12° 172° (S) 01:33:31 437.500
MOZHAYETS 4 22 Feb 01:50:36 01:53:39 18° 66° (ENE) 01:56:43
AO-7 22 Feb 02:01:08 02:03:53 12° 89° (E) 02:06:37 .
ITUPSAT 1 22 Feb 02:22:14 02:27:01 73° 257° (WSW) 02:31:51 437.325
RS-15 22 Feb 02:23:02 02:35:08 56° 51° (NE) 02:46:43 29.354- 29.394
Oscar 19 22 Feb 02:27:59 02:32:35 34° 291° (WNW) 02:37:10 437.125/150
BEESAT 22 Feb 02:31:34 02:36:15 56° 259° (W) 02:40:59 436.000
Gurwin Techsat 1B 22 Feb 02:42:14 02:47:20 48° 289° (WNW) 02:52:25 435.225
KKS-1 22 Feb 02:49:01 02:52:05 19° 66° (ENE) 02:55:09 437.445
ITAMSAT 1 22 Feb 02:53:06 02:57:58 38° 98° (E) 03:02:48 435.822/435.867
PCSat 22 Feb 03:10:01 03:14:58 37° 250° (WSW) 03:19:53 145.827
SRMSAT 22 Feb 03:17:07 03:19:54 13° 182° (S) 03:22:41 437.500
MOZHAYETS 4 22 Feb 03:26:02 03:30:26 43° 261° (W) 03:34:53
STARS 22 Feb 03:33:03 03:36:35 24° 68° (ENE) 03:40:07 437.465
AO-85 22 Feb 03:39:16 03:40:23 11° 109° (ESE) 03:41:29 145.980
M-CUBED/EXP-1 PRIME 22 Feb 03:41:19 03:43:53 21° 66° (ENE) 03:46:25 437.505
AO-7 22 Feb 03:49:29 03:57:50 75° 106° (ESE) 04:06:07 .
CUBESAT XI-V 22 Feb 04:15:01 04:19:42 87° 253° (WSW) 04:24:23 437.345
KKS-1 22 Feb 04:24:16 04:28:21 36° 262° (W) 04:32:27 437.445
ITAMSAT 1 22 Feb 04:33:01 04:37:11 25° 294° (WNW) 04:41:21 435.822/435.867
RS-15 22 Feb 04:36:09 04:47:15 44° 253° (WSW) 04:57:56 29.354- 29.394
STARS 22 Feb 05:09:07 05:12:47 26° 263° (W) 05:16:30 437.465
XW-2D 22 Feb 05:14:47 05:16:08 12° 92° (E) 05:17:30 145.860 - 145.880
CUTE-I 22 Feb 05:15:22 05:18:18 15° 92° (E) 05:21:14 437.470
AO-85 22 Feb 05:15:43 05:20:20 70° 301° (WNW) 05:24:37 145.980
M-CUBED/EXP-1 PRIME 22 Feb 05:16:06 05:18:20 17° 259° (W) 05:20:32 437.505
XW-2B 22 Feb 05:19:20 05:21:07 13° 92° (E) 05:22:56 145.730 - 145.750
XW-2C 22 Feb 05:27:11 05:29:42 17° 94° (E) 05:32:11 145.795 - 145.815
LilacSat-2 22 Feb 05:39:31 05:42:43 25° 96° (E) 05:45:54 437.200
AO-7 22 Feb 05:43:33 05:49:47 24° 304° (NW) 05:55:59 .
NUDT-PHONESAT 22 Feb 05:51:36 05:54:51 27° 96° (E) 05:58:03 437.300
DOVE 4 22 Feb 05:59:48 06:04:20 52° 100° (E) 06:09:09 437.250
HO-68 22 Feb 06:23:39 06:27:48 16° 91° (E) 06:31:56 435.675
STRAND 1 22 Feb 06:26:42 06:31:44 58° 73° (ENE) 06:36:47 437.568
SO-50 22 Feb 06:28:03 06:29:25 11° 41° (NE) 06:30:48 436.795
XW-2A 22 Feb 06:29:38 06:31:12 13° 93° (E) 06:32:45 145.665 - 145.685
XW-2F 22 Feb 06:44:27 06:48:08 47° 286° (WNW) 06:51:46 145.980 - 146.000
KAITUO 1B 22 Feb 06:45:43 06:49:25 54° 285° (WNW) 06:53:04 145.475/437.950
XW-2D 22 Feb 06:46:54 06:50:32 41° 286° (WNW) 06:54:07 145.860 - 145.880
XW-2B 22 Feb 06:51:56 06:55:29 37° 287° (WNW) 06:58:59 145.730 - 145.750
CUTE-I 22 Feb 06:53:25 06:58:44 63° 287° (WNW) 07:04:02 437.470
BEESAT 3 22 Feb 06:57:18 07:01:10 79° 119° (ESE) 07:05:07 437.485
XW-2C 22 Feb 07:00:35 07:03:55 29° 288° (WNW) 07:07:13 145.795 - 145.815
LilacSat-2 22 Feb 07:14:00 07:16:50 20° 291° (WNW) 07:19:38 437.200
NUDT-PHONESAT 22 Feb 07:26:00 07:28:34 18° 291° (WNW) 07:31:07 437.300
BEESAT 2 22 Feb 07:27:36 07:31:29 67° 118° (ESE) 07:35:26 435.950
SEEDS 22 Feb 07:29:58 07:33:45 33° 97° (E) 07:37:29 437.485
AAUSAT CUBESAT 2 22 Feb 07:30:56 07:33:27 16° 93° (E) 07:35:56 437.432
DOVE 4 22 Feb 07:38:55 07:41:39 16° 293° (WNW) 07:44:28 437.250
CUBEBUG 2 22 Feb 07:42:33 07:46:52 33° 96° (E) 07:51:08 437.445
XW-2A 22 Feb 08:00:58 08:04:02 30° 287° (WNW) 08:07:06 145.665 - 145.685
CUTE 1.7 + AOD 2 22 Feb 08:01:12 08:05:23 64° 285° (WNW) 08:09:32 437.475
Tancredo 1 22 Feb 08:03:01 08:05:34 21° 131° (SE) 08:08:07 437.200
SO-50 22 Feb 08:06:04 08:10:35 85° 59° (ENE) 08:15:03 436.795
STRAND 1 22 Feb 08:08:26 08:11:15 15° 268° (W) 08:14:05 437.568
HO-68 22 Feb 08:09:02 08:16:13 81° 288° (WNW) 08:23:21 435.675
AO-73 22 Feb 08:11:38 08:15:10 22° 94° (E) 08:18:39 145.935
Oscar 11 22 Feb 08:22:46 08:26:18 24° 95° (E) 08:29:49 .
UWE-3 22 Feb 08:27:15 08:31:55 64° 100° (E) 08:36:29 435.000/436.395/437.385
BEESAT 3 22 Feb 08:38:24 08:39:17 11° 317° (NW) 08:40:11 437.485
PRISM 22 Feb 08:39:03 08:43:04 61° 75° (ENE) 08:47:07 437.425
FO-29 22 Feb 08:50:44 08:56:12 25° 61° (ENE) 09:02:01 435.910
ZACube-1 22 Feb 08:56:21 09:00:57 79° 102° (ESE) 09:05:27 437.345
O/OREOS (USA 219) 22 Feb 08:59:44 09:04:11 49° 66° (ENE) 09:08:37 437.305
ISS 22 Feb 09:04:27 09:07:45 80° 321° (NW) 09:11:03 437.550
AAUSAT CUBESAT 2 22 Feb 09:05:15 09:09:01 35° 288° (WNW) 09:12:45 437.432
SEEDS 22 Feb 09:06:19 09:09:10 18° 292° (WNW) 09:12:01 437.485
BEESAT 2 22 Feb 09:08:03 09:09:42 12° 316° (NW) 09:11:22 435.950
CUBEBUG 2 22 Feb 09:19:30 09:23:15 24° 292° (WNW) 09:26:59 437.445
UNISAT 6 22 Feb 09:20:43 09:25:08 67° 75° (ENE) 09:29:40 437.425
TIGRISAT 22 Feb 09:22:08 09:26:31 64° 75° (ENE) 09:31:02 435.000
DELFI C3 22 Feb 09:33:36 09:37:25 48° 100° (E) 09:41:12 145.870
Tancredo 1 22 Feb 09:38:42 09:41:43 34° 326° (NNW) 09:44:45 437.200
AO-73 22 Feb 09:47:22 09:51:24 31° 290° (WNW) 09:55:21 145.935
POLYITAN 1 22 Feb 09:47:42 09:48:03 10° 63° (ENE) 09:48:25 437.675
QB50P2 22 Feb 09:49:18 09:50:49 12° 64° (ENE) 09:52:20 145.880/145.840
Oscar 11 22 Feb 09:58:45 10:02:21 26° 290° (WNW) 10:05:55 .
HO-68 22 Feb 09:59:14 10:02:49 15° 305° (NW) 10:06:25 435.675
AIST 2D 22 Feb 10:05:28 10:08:17 22° 71° (ENE) 10:11:06 435.315
UWE-3 22 Feb 10:05:44 10:07:46 13° 296° (WNW) 10:09:46 435.000/436.395/437.385
YUBILEINY 22 Feb 10:08:41 10:16:59 48° 89° (E) 10:25:17 435.215
FO-29 22 Feb 10:33:41 10:40:27 65° 260° (W) 10:48:01 435.910
O/OREOS (USA 219) 22 Feb 10:40:44 10:43:07 14° 261° (W) 10:45:29 437.305
ISS 22 Feb 10:42:46 10:44:40 14° 338° (NNW) 10:46:32 437.550
DUCHIFAT 1 22 Feb 10:55:57 11:00:01 52° 74° (ENE) 11:04:07 145.980
EO-79 22 Feb 11:02:35 11:06:48 77° 75° (ENE) 11:11:02 145.935-145.965
TIGRISAT 22 Feb 11:03:02 11:03:39 10° 271° (W) 11:04:15 435.000
DELFI C3 22 Feb 11:10:26 11:11:45 11° 294° (WNW) 11:13:03 145.870
POLYITAN 1 22 Feb 11:19:03 11:23:14 66° 259° (WSW) 11:27:29 437.675
NANOSAT C BR1 22 Feb 11:21:48 11:25:58 68° 259° (WSW) 11:30:12 145.865
QB50P2 22 Feb 11:21:56 11:26:04 56° 259° (W) 11:30:16 145.880/145.840
ESTCUBE 1 22 Feb 11:25:11 11:29:37 57° 101° (E) 11:34:00 437.505/2401.250
AIST 2D 22 Feb 11:38:57 11:41:26 18° 266° (W) 11:43:57 435.315
50 SAT 22 Feb 12:01:37 12:04:37 27° 97° (E) 12:07:37 437.505
Oscar 19 22 Feb 12:04:00 12:08:30 31° 69° (ENE) 12:13:00 437.125/150
VELOX 1 22 Feb 12:05:11 12:09:29 50° 100° (E) 12:13:45 145.980
YUBILEINY 22 Feb 12:06:06 12:13:55 35° 287° (WNW) 12:21:48 435.215
BUGSAT 1 22 Feb 12:06:47 12:10:46 66° 258° (WSW) 12:14:51 437.445
DX 1 22 Feb 12:08:29 12:11:55 22° 96° (E) 12:15:20 434.975-435.025
Gurwin Techsat 1B 22 Feb 12:22:33 12:26:54 26° 67° (ENE) 12:31:16 435.225
UKube-1 22 Feb 12:27:11 12:30:47 26° 96° (E) 12:34:23 .
DUCHIFAT 1 22 Feb 12:34:42 12:35:58 11° 269° (W) 12:37:16 145.980
SPROUT 22 Feb 12:38:15 12:42:34 81° 284° (WNW) 12:46:52 437.525
AO-7 22 Feb 12:57:32 13:02:46 18° 52° (NE) 13:07:59 .
ESTCUBE 1 22 Feb 13:03:55 13:05:54 13° 296° (WNW) 13:07:52 437.505/2401.250
50 SAT 22 Feb 13:35:33 13:37:30 14° 292° (WNW) 13:39:27 437.505
VELOX 1 22 Feb 13:43:09 13:45:29 14° 295° (WNW) 13:47:49 145.980
Oscar 19 22 Feb 13:43:21 13:47:45 28° 264° (W) 13:52:11 437.125/150
DX 1 22 Feb 13:44:20 13:48:03 28° 290° (WNW) 13:51:47 434.975-435.025
AO-85 22 Feb 13:48:49 13:52:38 52° 57° (ENE) 13:56:31 145.980
ISS 22 Feb 13:58:41 14:00:05 12° 19° (NNE) 14:01:29 437.550
Gurwin Techsat 1B 22 Feb 14:01:48 14:06:39 36° 262° (W) 14:11:32 435.225
UKube-1 22 Feb 14:03:12 14:06:42 25° 291° (WNW) 14:10:12 .
ITAMSAT 1 22 Feb 14:09:06 14:14:05 48° 71° (ENE) 14:19:06 435.822/435.867
ITUPSAT 1 22 Feb 14:24:52 14:29:11 33° 97° (E) 14:33:28 437.325
Tancredo 1 22 Feb 14:31:29 14:33:48 18° 26° (NNE) 14:36:06 437.200
BEESAT 22 Feb 14:33:30 14:38:02 41° 99° (E) 14:42:31 436.000
AO-7 22 Feb 14:45:57 14:54:19 85° 71° (ENE) 15:02:44 .
BEESAT 3 22 Feb 15:16:10 15:19:33 25° 52° (NE) 15:22:54 437.485
MOZHAYETS 4 22 Feb 15:22:39 15:27:08 49° 99° (E) 15:31:33
AO-85 22 Feb 15:31:33 15:32:34 11° 251° (WSW) 15:33:34 145.980
ISS 22 Feb 15:33:54 15:37:08 56° 37° (NE) 15:40:21 437.550
BEESAT 2 22 Feb 15:47:25 15:50:41 23° 51° (NE) 15:53:57 435.950
ITAMSAT 1 22 Feb 15:50:14 15:53:46 18° 267° (W) 15:57:19 435.822/435.867
ITUPSAT 1 22 Feb 16:03:00 16:06:49 24° 293° (WNW) 16:10:38 437.325
PCSat 22 Feb 16:06:26 16:11:22 37° 110° (ESE) 16:16:18 145.827
Tancredo 1 22 Feb 16:07:10 16:10:20 58° 223° (SW) 16:13:28 437.200
BEESAT 22 Feb 16:12:06 16:15:28 19° 294° (WNW) 16:18:51 436.000
CUBESAT XI-V 22 Feb 16:13:56 16:17:46 26° 95° (E) 16:21:35 437.345
KKS-1 22 Feb 16:16:33 16:20:51 46° 100° (E) 16:25:08 437.445
LilacSat-2 22 Feb 16:21:55 16:22:44 11° 65° (ENE) 16:23:33 437.200
NUDT-PHONESAT 22 Feb 16:31:52 16:32:28 10° 65° (ENE) 16:33:02 437.300
CUTE-I 22 Feb 16:35:03 16:38:59 21° 65° (ENE) 16:42:56 437.470
AO-7 22 Feb 16:42:36 16:47:54 18° 268° (W) 16:53:13 .
RS-15 22 Feb 16:43:51 16:54:28 41° 106° (ESE) 17:05:28 29.354- 29.394
BEESAT 3 22 Feb 16:53:43 16:57:04 26° 247° (WSW) 17:00:23 437.485
HO-68 22 Feb 16:54:12 16:55:46 11° 52° (NE) 16:57:20 435.675
M-CUBED/EXP-1 PRIME 22 Feb 16:54:22 16:57:30 24° 103° (ESE) 17:00:48 437.505
STARS 22 Feb 16:59:17 17:03:41 61° 101° (E) 17:08:03 437.465
MOZHAYETS 4 22 Feb 17:01:10 17:03:51 15° 295° (WNW) 17:06:31
DOVE 4 22 Feb 17:04:06 17:07:56 37° 72° (ENE) 17:11:45 437.250
ISS 22 Feb 17:11:42 17:13:14 13° 232° (SW) 17:14:45 437.550
XW-2F 22 Feb 17:23:00 17:26:45 57° 75° (ENE) 17:30:32 145.980 - 146.000
KAITUO 1B 22 Feb 17:23:32 17:27:12 47° 74° (ENE) 17:30:53 145.475/437.950
BEESAT 2 22 Feb 17:24:55 17:28:27 29° 247° (WSW) 17:31:57 435.950
XW-2D 22 Feb 17:25:41 17:29:28 67° 77° (ENE) 17:33:18 145.860 - 145.880
XW-2B 22 Feb 17:30:37 17:34:27 75° 77° (ENE) 17:38:19 145.730 - 145.750
XW-2C 22 Feb 17:39:07 17:42:57 83° 258° (WSW) 17:46:50 145.795 - 145.815
PCSat 22 Feb 17:50:06 17:54:47 29° 307° (NW) 17:59:30 145.827
CUBESAT XI-V 22 Feb 17:51:12 17:55:03 27° 291° (WNW) 17:58:54 437.345
LilacSat-2 22 Feb 17:52:45 17:56:31 51° 260° (W) 18:00:19 437.200
KKS-1 22 Feb 17:54:20 17:57:00 16° 295° (WNW) 17:59:40 437.445
NUDT-PHONESAT 22 Feb 18:02:16 18:05:54 49° 261° (W) 18:09:36 437.300
CUTE-I 22 Feb 18:13:36 18:18:41 46° 261° (W) 18:23:49 437.470
SEEDS 22 Feb 18:20:20 18:23:19 19° 68° (ENE) 18:26:19 437.485
M-CUBED/EXP-1 PRIME 22 Feb 18:28:55 18:31:51 22° 294° (WNW) 18:34:56 437.505
XW-2A 22 Feb 18:30:00 18:33:18 56° 76° (ENE) 18:36:39 145.665 - 145.685
HO-68 22 Feb 18:35:01 18:42:04 63° 70° (ENE) 18:49:09 435.675
STARS 22 Feb 18:37:46 18:39:28 12° 297° (WNW) 18:41:12 437.465
CUBEBUG 2 22 Feb 18:39:16 18:42:35 21° 68° (ENE) 18:46:00 437.445
STRAND 1 22 Feb 18:39:46 18:43:50 23° 95° (E) 18:47:51 437.568
DOVE 4 22 Feb 18:43:27 18:45:48 15° 267° (W) 18:48:07 437.250
CUTE 1.7 + AOD 2 22 Feb 18:51:23 18:55:37 68° 76° (ENE) 18:59:54 437.475
RS-15 22 Feb 18:54:43 19:06:28 59° 308° (NW) 19:18:41 29.354- 29.394
AO-73 22 Feb 19:06:13 19:08:35 14° 65° (ENE) 19:10:59 145.935
Oscar 11 22 Feb 19:16:31 19:19:09 16° 66° (ENE) 19:21:47 .
UWE-3 22 Feb 19:22:09 19:26:15 39° 72° (ENE) 19:30:27 435.000/436.395/437.385
ZACube-1 22 Feb 19:49:52 19:54:04 46° 73° (ENE) 19:58:24 437.345
